Change the Weather History Date:

Friday, August 16, 2013

  Actual Average Record
Temperature  
Mean Temperature 71 °F -  
Max Temperature 78 °F 86 °F 100 °F (1999)
Min Temperature 64 °F 67 °F 61 °F (2004)
Cooling Degree Days 6    
Growing Degree Days 21 (Base 50)    
Moisture  
Dew Point 55 °F    
Average Humidity 58    
Maximum Humidity 73    
Minimum Humidity 43    
Precipitation  
Precipitation 0.00 in - - ()
Sea Level Pressure  
Sea Level Pressure 30.12 in    
Wind  
Wind Speed 5 mph (East)    
Max Wind Speed 12 mph    
Max Gust Speed 17 mph    
Visibility 10 miles    
Events      
Averages and records for this station are not official NWS values.
T = Trace of Precipitation, MM = Missing Value Source: NWS Daily Summary

Daily Weather History Graph

Daily Weather History Graph

Search for Another Location

Airport or City:

Trip Planner

Search our weather history database for the weather conditions in past years. The results will help you decide how hot, cold, wet, or windy it might be!

Date:

Astronomy

Aug. 16, 2013 Rise Set
Actual Time 6:32 AM CDT 8:11 PM CDT
Civil Twilight 6:04 AM CDT 8:40 PM CDT
Nautical Twilight 5:29 AM CDT 9:14 PM CDT
Astronomical Twilight 4:53 AM CDT 9:50 PM CDT
Moon 4:30 PM CDT (8/16) 1:37 AM CDT (8/16)
Length of Visible Light 14h 35m
Length of Day
13h 39m
Waxing Gibbous, 75% of the Moon is Illuminated
Aug 16
Waxing Gibbous
Aug 20
Full
Aug 28
Last Quarter
Sep 5
New
Sep 12
First Quarter

Hourly Weather History & Observations

Time (CDT) Temp. Dew Point Humidity Pressure Visibility Wind Dir Wind Speed Gust Speed Precip Events Conditions
12:54 AM 68.0 °F 55.0 °F 63% 30.08 in 10.0 mi East 4.6 mph - N/A   Overcast
1:54 AM 66.0 °F 55.0 °F 68% 30.07 in 10.0 mi Calm Calm - N/A   Clear
2:54 AM 66.0 °F 55.9 °F 70% 30.07 in 10.0 mi East 3.5 mph - N/A   Overcast
3:54 AM 66.0 °F 55.0 °F 68% 30.08 in 10.0 mi East 4.6 mph - N/A   Overcast
4:54 AM 64.9 °F 55.9 °F 73% 30.09 in 10.0 mi East 4.6 mph - N/A   Overcast
5:54 AM 64.9 °F 55.0 °F 70% 30.09 in 10.0 mi Calm Calm - N/A   Overcast
6:54 AM 64.9 °F 55.0 °F 70% 30.10 in 10.0 mi East 3.5 mph - N/A   Overcast
7:54 AM 66.0 °F 55.9 °F 70% 30.13 in 10.0 mi NE 5.8 mph - N/A   Mostly Cloudy
8:54 AM 68.0 °F 55.9 °F 65% 30.14 in 10.0 mi ENE 5.8 mph - N/A   Clear
9:54 AM 69.1 °F 57.9 °F 68% 30.14 in 10.0 mi East 5.8 mph - N/A   Scattered Clouds
10:54 AM 72.0 °F 55.0 °F 55% 30.15 in 10.0 mi East 8.1 mph - N/A   Overcast
11:54 AM 73.9 °F 55.0 °F 52% 30.14 in 10.0 mi ENE 9.2 mph - N/A   Partly Cloudy
12:54 PM 75.0 °F 55.0 °F 50% 30.14 in 10.0 mi NE 6.9 mph - N/A   Mostly Cloudy
1:54 PM 77.0 °F 53.1 °F 43% 30.12 in 10.0 mi East 5.8 mph - N/A   Partly Cloudy
2:54 PM 78.1 °F 55.0 °F 45% 30.11 in 10.0 mi East 11.5 mph 17.3 mph N/A   Clear
3:54 PM 77.0 °F 55.0 °F 47% 30.11 in 10.0 mi East 5.8 mph - N/A   Partly Cloudy
4:54 PM 78.1 °F 55.0 °F 45% 30.11 in 10.0 mi East 10.4 mph - N/A   Partly Cloudy
5:54 PM 75.9 °F 53.1 °F 45% 30.12 in 10.0 mi East 10.4 mph - N/A   Partly Cloudy
6:54 PM 75.0 °F 53.1 °F 46% 30.12 in 10.0 mi East 9.2 mph - N/A   Clear
7:54 PM 73.0 °F 52.0 °F 48% 30.12 in 10.0 mi ESE 5.8 mph - N/A   Clear
8:54 PM 71.1 °F 53.1 °F 53% 30.13 in 10.0 mi East 3.5 mph - N/A   Clear
9:54 PM 70.0 °F 53.1 °F 55% 30.14 in 10.0 mi East 3.5 mph - N/A   Clear
10:54 PM 66.9 °F 55.0 °F 66% 30.15 in 10.0 mi Calm Calm - N/A   Clear
11:54 PM 66.9 °F 55.9 °F 68% 30.16 in 10.0 mi Calm Calm - N/A   Clear